Temp
20 20 19 19 20 20 19 19 19 19 19 19 19 18 17 17 16 16 16 16 15 15 15 15 15 15 15 15 15 16 15 15 14 14 14 14 14 14 14 14 14 15
20 20 20 20 20 20 19 19 19 19 19 19 19 18 18 17 16 16 16 15 15 15 15 15 15 14 15 15 15 15 15 14 14 14 14 14 14 14 13 13 14 14
19 19 20 20 20 20 19 19 19 19 19 19 19 18 18 17 16 16 16 15 15 15 15 15 15 14 15 15 15 15 15 14 14 14 14 14 14 14 14 13 13 13
19 19 19 19 20 20 19 19 19 19 19 19 18 18 18 17 16 16 16 15 15 15 15 15 15 15 15 15 15 15 14 14 14 14 14 14 14 14 14 13 13 13
19 19 19 19 19 19 19 19 19 19 19 19 18 18 18 17 16 16 16 16 16 15 15 15 15 15 15 15 15 15 14 14 14 14 14 14 14 14 13 13 13 13
19 19 19 19 19 19 19 18 18 19 19 19 18 18 18 17 16 16 16 16 16 16 15 15 15 15 15 15 15 15 14 14 14 14 14 14 14 13 13 13 13 13
19 19 19 19 19 19 18 18 18 18 18 19 18 18 18 17 17 17 16 16 16 16 16 15 15 15 15 15 15 15 15 14 14 14 14 14 14 13 13 13 13 13
18 18 18 18 19 18 18 18 18 17 18 18 18 18 18 17 17 17 17 16 16 16 16 16 15 15 15 15 15 15 14 14 14 14 14 14 14 13 13 13 13 13
17 18 18 18 18 18 18 18 18 17 17 17 18 18 18 18 18 17 17 17 17 16 16 16 16 16 15 15 15 15 14 14 14 14 14 14 14 14 14 13 13 13
17 17 18 18 18 18 18 17 17 17 17 17 17 17 17 17 18 18 17 17 17 17 17 16 16 16 15 15 15 15 14 14 14 14 14 14 14 14 14 13 13 13
17 17 17 17 17 17 17 17 17 17 17 17 17 17 17 17 17 18 18 17 17 17 17 17 16 16 16 15 15 15 14 14 14 14 14 13 14 13 13 13 13 13
16 16 16 16 16 16 16 16 16 16 16 16 16 17 17 17 17 17 18 18 17 17 17 17 17 16 16 15 15 15 14 14 14 14 13 13 13 13 12 12 12 12
16 16 16 15 15 15 15 16 16 16 16 16 16 16 17 17 17 17 17 17 18 18 17 17 17 17 16 15 15 15 14 14 13 13 13 13 13 12 12 12 12 12
16 16 16 16 16 16 16 15 15 16 15 15 16 16 16 17 17 17 17 17 17 18 17 17 17 17 16 15 15 15 14 13 13 13 13 13 12 12 12 11 11 11
17 16 16 16 17 17 17 16 16 16 16 15 16 16 16 16 17 17 17 16 17 17 17 17 17 17 16 15 15 14 14 13 13 13 13 12 12 12 11 11 11 11
17 17 17 17 17 17 17 17 17 17 17 16 16 16 16 16 16 16 16 16 16 17 17 17 17 16 16 15 15 14 13 13 13 13 12 12 12 12 11 11 11 11
17 17 17 17 17 17 17 17 17 17 17 17 17 16 16 16 16 16 16 16 16 16 16 16 16 16 15 14 14 13 13 13 13 12 12 12 12 12 11 11 11 11
17 17 17 17 17 17 17 17 17 17 17 17 17 17 16 16 16 16 16 16 15 15 15 14 14 14 14 14 13 13 12 12 12 12 12 12 11 11 11 11 11 11
17 17 17 17 17 17 17 17 17 17 17 17 17 17 16 16 16 16 15 15 15 15 14 14 13 13 13 13 12 12 12 12 12 12 12 12 11 11 11 11 11 10
16 16 17 16 16 16 16 16 17 17 17 16 16 16 16 16 16 16 15 15 15 15 14 14 13 13 12 12 12 11 11 12 12 12 11 11 11 10 10 10 10 10
16 16 16 16 16 16 16 16 16 16 16 16 16 16 16 16 16 16 15 15 14 14 14 13 13 12 12 11 11 11 11 11 11 11 10 10 10 10 10 10 9 9
16 16 15 15 16 16 16 16 16 16 16 16 16 16 16 16 16 16 15 15 14 14 13 13 12 11 11 11 11 10 10 10 10 9 9 10 10 10 9 9 9 9
15 15 15 15 15 15 15 16 16 16 16 16 16 16 16 16 16 16 15 15 14 14 13 11 11 10 10 10 10 9 9 9 9 9 9 9 9 9 9 9 9 9
15 15 15 15 15 15 15 15 15 15 15 15 15 15 15 16 15 15 15 14 14 13 12 10 10 9 9 9 9 9 9 9 9 9 10 10 10 10 10 10 9 9
15 15 14 14 14 15 15 15 15 15 15 15 15 15 15 15 15 15 14 13 13 12 10 10 9 9 8 8 8 8 9 9 9 10 10 10 10 10 10 10 9 9
14 14 14 14 14 14 14 14 14 14 15 15 15 15 15 15 15 14 13 11 11 10 9 9 9 8 8 8 7 8 8 8 9 9 9 9 9 9 9 9 9 9
Height
798 799 801 802 803 804 805 807 807 809 810 811 812 813 815 816 817 818 819 819 819 820 820 820 820 821 821 821 821 822 822 822 822 823 823 823 823 823 823 823 823 823
797 798 800 801 802 803 804 805 806 807 809 810 811 812 814 815 816 817 818 819 820 820 820 820 821 821 821 822 822 822 822 823 823 823 823 824 824 824 824 824 824 824
796 797 799 800 801 802 803 805 806 806 808 809 810 811 812 814 815 816 818 818 819 820 820 820 821 821 821 822 822 822 823 823 823 823 824 824 824 824 825 825 825 825
795 796 798 799 800 801 803 804 805 805 806 807 808 810 811 812 814 815 816 817 818 819 819 820 820 821 821 822 822 823 823 823 824 824 824 824 824 825 825 825 825 825
794 795 797 798 799 801 802 803 805 805 805 806 807 808 809 811 812 813 814 815 817 818 818 819 820 820 821 821 822 823 823 824 824 824 825 825 825 825 825 825 825 825
793 794 795 797 798 800 801 802 804 805 806 806 806 807 807 808 810 811 812 813 815 816 817 818 819 819 820 821 822 822 823 823 824 824 825 825 825 825 826 826 826 826
792 793 795 795 796 798 799 801 803 804 806 806 806 807 807 807 808 809 810 811 812 813 814 816 817 818 819 820 820 821 822 823 823 824 825 825 825 825 826 826 826 826
792 793 794 795 795 796 797 799 801 803 805 806 806 807 807 807 807 807 808 809 810 811 812 813 814 815 817 818 819 820 820 821 822 823 824 824 825 825 825 826 826 826
791 793 794 794 794 795 796 798 800 801 802 804 805 806 807 806 806 807 807 807 808 809 809 811 812 813 814 815 816 818 818 820 821 821 822 823 824 824 825 825 825 825
790 791 793 793 793 793 795 797 800 800 801 801 802 804 805 806 806 806 806 806 806 807 807 808 809 810 812 813 814 815 816 818 819 820 821 822 822 823 823 824 824 825
788 789 791 792 792 792 792 795 797 799 800 800 800 801 802 803 804 805 805 804 804 805 805 806 807 808 809 810 811 813 814 815 817 818 819 820 820 821 822 822 823 824
788 789 789 790 790 790 790 791 793 796 798 799 798 798 798 799 801 802 802 802 802 803 803 804 805 806 807 808 809 810 812 813 814 815 817 818 818 820 820 821 821 822
788 788 788 787 787 787 788 789 791 793 794 795 796 795 795 796 797 798 799 800 800 800 801 802 803 804 805 806 806 808 809 811 812 814 815 816 817 817 818 819 820 820
787 787 787 786 786 786 787 788 789 791 791 792 792 792 792 792 793 794 795 796 797 797 798 799 800 801 803 804 804 805 807 808 810 811 812 814 815 816 817 817 818 818
786 786 785 785 785 785 786 786 787 789 790 790 789 788 789 790 790 791 792 793 794 795 795 796 797 798 800 802 802 802 804 806 807 809 810 812 813 814 815 816 816 816
785 785 785 785 784 785 785 786 786 787 787 787 786 786 787 787 788 789 789 790 791 792 793 794 794 795 797 799 799 799 802 803 805 807 809 810 811 812 813 814 814 815
784 784 784 784 784 784 784 784 784 784 784 784 784 784 785 786 786 787 788 788 789 790 791 791 792 794 796 798 797 797 800 802 803 805 807 808 810 811 812 812 813 813
783 783 783 783 783 783 783 783 783 783 783 783 783 783 784 784 784 785 786 786 787 787 788 788 790 792 795 796 796 796 799 801 802 804 805 807 808 809 810 811 811 812
782 782 782 783 783 783 783 782 782 782 782 782 782 782 782 782 782 783 783 784 785 785 786 787 788 790 793 794 795 796 798 799 801 803 804 805 807 807 808 809 809 810
781 781 781 782 782 782 782 781 781 781 781 781 781 781 781 780 781 781 781 782 782 783 785 786 787 788 791 793 794 795 797 798 801 802 803 804 805 806 807 807 807 808
780 780 781 781 781 781 781 780 780 779 780 780 779 779 779 778 778 778 779 780 780 781 783 784 784 786 789 792 794 795 796 798 800 801 802 803 804 805 805 806 806 806
779 779 780 780 780 780 779 779 778 778 778 778 777 777 777 776 776 776 777 777 778 779 781 781 782 785 787 790 793 794 796 798 799 800 801 802 803 804 804 804 804 805
778 778 778 778 778 778 777 777 777 777 776 776 776 775 775 774 774 774 775 775 776 777 778 778 780 784 786 789 792 793 795 797 798 799 801 801 802 802 803 803 803 803
776 776 776 776 776 776 776 775 775 775 775 774 774 773 773 773 773 773 773 774 775 776 776 776 779 783 787 789 792 793 795 797 798 799 799 800 800 801 801 801 801 801
774 774 774 774 774 774 773 773 773 773 772 772 772 771 771 771 771 772 773 773 774 775 774 775 779 784 787 790 792 793 795 796 797 798 798 799 799 799 799 799 799 799
771 772 771 771 771 771 771 771 771 770 770 770 770 770 769 770 770 771 772 773 773 774 775 776 779 784 788 790 792 794 795 795 796 797 797 798 798 798 798 798 798 798
Wind_Speed
15 15 14 14 13 13 13 12 11 11 10 9 9 9 9 9 10 8 7 6 6 5 5 4 4 4 4 3 3 4 4 5 5 5 5 5 5 5 4 4 4 3
15 15 14 14 14 13 13 13 12 12 11 10 9 10 10 11 11 10 8 8 7 6 6 5 5 4 4 4 3 3 3 4 4 4 4 4 4 4 4 4 4 4
16 15 14 13 13 13 13 13 13 12 12 11 10 10 11 13 13 12 10 9 8 8 8 7 6 5 5 5 4 3 3 3 3 3 3 3 3 3 3 3 4 4
16 15 14 13 12 12 12 13 13 13 13 12 12 12 13 14 14 13 13 11 10 9 9 8 8 7 6 6 5 4 4 4 4 3 3 3 3 2 2 2 2 3
15 15 15 14 13 12 11 12 13 13 13 13 14 14 14 15 16 15 15 14 12 11 11 10 9 8 8 7 6 5 5 5 4 4 3 3 2 2 2 1 1 1
13 14 15 15 14 13 12 12 12 12 13 13 14 15 15 17 17 17 16 16 15 13 13 12 11 10 9 8 7 7 6 6 6 5 5 4 3 2 2 1 1 1
10 12 13 14 14 13 14 14 13 13 13 13 14 14 15 17 18 18 18 17 16 16 15 14 13 12 11 10 9 8 7 7 7 6 6 5 5 4 3 2 2 2
10 12 12 12 13 13 13 13 13 12 13 14 15 15 15 17 17 18 18 18 18 17 17 16 15 15 14 12 11 10 9 8 8 8 7 6 5 5 5 4 2 3
8 11 12 12 13 13 14 15 14 13 14 15 14 14 16 17 17 17 18 19 19 19 18 18 17 16 16 15 13 13 12 10 9 9 8 7 6 6 5 4 4 4
7 8 11 11 11 11 11 13 14 13 14 15 14 14 16 16 16 18 18 19 19 19 19 19 19 18 18 16 15 15 14 12 11 11 10 8 8 7 5 4 4 4
7 8 9 9 10 10 11 13 16 15 14 15 14 14 16 16 17 18 19 20 20 20 20 20 20 19 19 18 17 16 16 14 13 12 11 10 9 8 7 5 5 4
6 8 8 8 8 9 11 16 20 19 16 16 15 15 16 18 19 19 20 21 21 21 21 20 19 19 19 18 17 17 16 15 14 13 12 12 11 9 8 7 6 5
3 4 5 6 6 7 9 12 16 17 18 20 20 18 17 18 20 21 21 22 22 22 21 21 20 20 19 19 18 18 17 16 15 14 13 12 11 10 9 8 7 6
1 1 2 3 4 6 7 10 14 16 18 20 20 19 18 19 20 21 22 23 23 22 22 22 22 21 21 20 19 18 18 17 16 15 14 13 11 10 10 9 8 7
3 3 2 2 3 4 5 8 11 14 17 17 17 16 17 19 20 20 21 22 22 23 23 23 23 23 23 22 20 19 19 17 16 15 14 13 12 11 11 9 9 8
4 4 4 4 4 5 6 7 8 10 12 12 14 15 16 18 20 20 20 21 22 21 21 22 23 23 23 24 23 21 19 17 16 16 14 13 12 11 11 10 9 8
4 4 5 5 6 6 7 7 8 9 9 9 11 13 15 17 19 19 19 19 20 21 21 21 21 20 22 26 27 24 19 16 16 15 14 13 12 11 10 9 9 8
5 5 6 6 6 7 7 8 8 9 9 10 11 12 13 14 16 17 18 18 19 21 22 20 19 20 23 27 29 26 20 16 14 14 13 12 11 10 9 8 7 7
6 6 7 7 7 8 8 8 9 9 10 10 11 11 12 13 15 15 17 18 18 19 20 19 19 21 24 28 29 26 22 17 12 13 13 11 11 10 8 7 7 7
6 7 7 8 8 9 9 9 10 10 10 10 11 12 12 13 14 15 17 17 17 18 20 20 21 22 24 28 29 27 24 18 12 11 11 10 9 9 8 8 7 7
7 7 7 8 9 9 10 11 11 11 11 11 12 12 12 13 14 14 16 17 17 18 18 19 21 24 26 29 28 27 25 19 11 10 9 7 8 9 8 8 8 8
7 8 8 9 10 10 11 11 11 12 12 12 12 12 13 13 13 14 15 16 18 18 16 17 21 24 27 29 28 26 23 16 10 8 7 7 7 8 8 8 9 9
8 9 9 9 10 10 11 11 11 12 12 12 13 13 13 13 14 13 13 15 17 17 16 18 22 25 27 28 26 23 18 13 9 8 7 7 8 8 8 8 9 10
10 10 10 10 10 11 12 12 12 13 13 12 12 13 14 14 13 13 12 13 15 15 17 21 24 26 27 25 22 19 16 11 8 8 7 7 7 7 8 8 9 11
11 11 11 11 11 12 12 12 13 13 13 13 13 13 13 13 13 13 10 9 10 14 18 21 25 27 25 22 18 15 13 9 6 6 6 6 6 7 7 8 9 11
13 12 12 12 12 12 12 13 13 13 13 13 13 13 13 13 13 12 8 8 10 14 17 21 27 29 24 19 16 14 12 8 4 3 4 4 5 6 7 9 10 11
Wind_Direction
189 189 188 189 192 187 185 187 183 179 182 181 177 178 177 174 173 174 172 165 158 148 141 135 125 119 110 97 87 83 81 78 76 75 76 76 74 72 62 47 35 22
193 195 194 195 197 194 189 189 187 184 186 187 182 179 178 175 175 178 178 172 170 165 159 156 150 146 141 131 124 114 102 95 89 84 81 76 71 68 56 42 35 15
197 200 200 201 203 201 194 191 192 189 188 190 186 183 179 176 178 180 181 179 179 175 171 170 167 164 164 158 153 148 141 131 120 116 106 93 82 75 62 46 36 18
200 203 205 208 209 206 199 196 197 194 193 193 190 188 183 179 181 182 183 184 185 183 182 181 179 177 175 172 172 167 160 159 152 147 139 122 113 106 93 76 58 34
204 206 208 212 213 213 209 206 208 205 201 197 193 192 187 183 184 185 186 187 187 189 188 186 186 184 182 181 183 178 174 177 172 168 168 153 141 136 126 122 116 82
208 210 213 215 216 218 217 216 219 219 215 207 199 197 193 188 189 189 189 190 190 192 192 191 191 188 187 188 188 186 188 187 180 182 187 176 172 173 170 191 207 217
220 220 219 220 220 221 225 225 223 226 229 223 212 207 202 195 194 194 193 194 194 195 194 194 194 192 191 192 191 191 192 187 181 190 196 186 184 191 192 204 234 250
237 236 230 227 226 226 228 227 225 225 231 234 228 222 215 206 202 201 198 197 199 199 199 198 197 196 194 193 196 194 190 186 186 194 199 191 191 200 200 200 228 258
234 247 245 238 233 233 237 240 238 228 227 234 233 230 229 220 213 211 205 202 202 202 202 201 200 200 197 196 197 193 190 189 191 196 197 194 200 209 210 206 215 242
212 237 249 249 243 239 242 250 253 245 235 234 231 231 235 233 226 222 215 210 208 206 205 204 203 202 198 198 198 194 192 193 192 195 196 199 205 207 207 213 223 238
207 219 232 242 245 243 244 253 263 263 249 238 233 230 234 238 238 232 225 219 215 213 211 207 205 204 200 198 198 194 193 193 193 194 196 199 202 203 205 214 223 236
214 218 221 226 234 244 252 256 259 257 244 236 236 233 231 234 236 236 234 228 222 219 217 214 211 209 203 198 197 195 193 193 192 193 196 197 197 200 207 208 211 227
213 225 231 233 236 243 249 250 249 245 237 236 236 233 233 234 234 236 237 233 228 226 223 221 219 218 211 201 196 194 192 190 191 192 195 195 194 198 202 200 205 217
12 296 258 254 257 250 244 245 247 247 243 239 236 232 234 238 238 239 238 235 233 230 227 224 221 221 218 206 195 193 190 187 188 192 194 193 194 198 197 197 203 209
336 325 314 303 290 274 258 253 253 253 249 245 242 241 241 242 243 242 241 239 236 233 231 225 221 221 218 207 195 190 187 185 188 193 193 191 192 195 195 197 203 205
319 317 317 309 301 291 279 270 264 261 258 254 251 248 247 246 246 244 242 241 239 234 231 227 224 222 215 205 195 187 184 187 189 190 190 190 191 193 194 198 205 207
311 308 304 301 298 294 288 284 281 277 273 267 257 251 247 247 248 245 242 242 238 231 231 231 226 220 214 206 197 189 185 185 184 185 189 191 192 194 198 203 208 211
313 307 300 297 294 290 290 288 287 284 278 270 262 255 249 246 246 244 241 242 237 230 235 236 219 212 216 210 199 191 185 181 182 184 187 191 194 198 201 205 208 215
309 301 297 297 293 290 289 285 280 276 272 270 264 257 251 247 245 241 238 240 236 229 233 231 215 212 214 205 196 189 180 176 182 188 188 192 196 195 200 208 217 230
299 295 292 292 290 288 286 281 278 274 269 267 262 257 253 248 245 242 238 235 233 229 228 221 214 215 212 201 195 190 183 181 188 189 187 190 194 195 205 217 225 236
290 290 290 290 288 286 283 280 278 275 269 266 262 257 253 249 245 244 240 231 228 230 227 218 212 212 208 201 198 195 191 189 185 179 181 190 199 206 217 226 233 239
285 285 285 286 285 283 282 281 279 276 271 267 264 258 254 251 247 244 241 234 229 226 219 212 207 203 201 200 198 194 189 184 175 171 184 199 209 218 226 234 241 243
279 278 279 282 283 282 281 280 280 278 273 268 264 260 254 251 247 246 244 238 231 221 207 201 196 193 194 194 191 185 177 172 172 177 194 210 215 226 237 242 247 247
279 280 281 281 282 282 282 282 279 277 275 268 263 260 258 254 250 249 247 242 234 214 196 192 186 183 186 185 178 171 164 162 178 191 202 218 224 233 244 250 256 257
281 281 281 280 280 280 280 279 277 275 273 267 262 259 259 256 253 248 240 234 221 196 188 189 182 176 176 172 164 160 156 157 186 204 209 226 240 249 256 261 268 274
278 276 276 277 278 279 278 275 274 272 270 266 262 261 261 259 255 243 205 173 182 184 186 189 181 170 166 163 160 160 159 158 179 224 232 246 257 265 273 276 278 281